Flag for Germany Weather past 2 weeks in Kamp-Lintfort, North Rhine-Westphalia, Germany

Now
41 °F

Rain. Low clouds.


Feels Like: 36 °F
Forecast: 36 / 51 °F
Wind: 7 mph from Northwest

Location: Duesseldorf

Current Time: Apr 2, 2015 at 9:38:54 AM

Latest Report: Apr 2, 2015 at 9:00 AM


Visibility: 5 mi

Pressure: 29.85 "Hg

Humidity: 91%

Dew point: 38 °F

Location of Kamp-LintfortLocation

Historic Weather in Kamp-Lintfort — Graph

°F

Kamp-Lintfort temperature yesterday

Maximum temperature yesterday: 47 °F (at 4:00 PM)
Minimum temperature yesterday: 37 °F (at 7:00 AM)
Average temperature yesterday: 43 °F

Past Weeks' High & Low Weather Summary

 TemperatureHumidityPressure
High62 °F (Mar 18, 3:00 PM)99% (Mar 20, 1:00 AM)30.39 "Hg (Mar 20, 1:00 AM)
Low31 °F (Mar 20, 3:00 AM)41% (Mar 31, 5:00 PM)29.26 "Hg (Mar 29, 8:00 PM)
Average44 °F79%29.95 "Hg
* Reported Mar 18 7:00 AM — Apr 2 8:00 AM, Kamp-Lintfort, Weather by CustomWeather, © 2015

Note: Actual official high and low records may vary slightly from our data, if they occured in-between our weather recording intervals... More about our weather records

Advertising

Kamp-Lintfort weather history for previous 24 hours

 ConditionsComfort  
Time TempWeatherWind HumidityBarometerVisibility
8:00 AM
Thu, Apr 2
42 °FRain. Low clouds.8 mph92%29.82 "Hg7 mi
7:00 AM42 °FRain. Low clouds.8 mph91%29.81 "Hg9 mi
6:00 AM42 °FRain. Low clouds.9 mph91%29.83 "Hg9 mi
4:00 AM42 °FRain. Overcast.9 mph88%29.91 "Hg9 mi
3:00 AM42 °FRain. Overcast.9 mph87%29.95 "Hg10 mi
2:00 AM42 °FRain. Overcast.10 mph89%29.99 "Hg7 mi
1:00 AM43 °FOvercast.9 mph78%30.01 "Hg25 mi
12:00 AM44 °FOvercast.12 mph72%30.02 "Hg25 mi
11:00 PM
Wed, Apr 1
44 °FOvercast.8 mph68%30.04 "Hg22 mi
10:00 PM46 °FOvercast.8 mph58%30.06 "Hg25 mi
9:00 PM45 °FOvercast.6 mph60%30.08 "Hg25 mi
8:00 PM46 °FOvercast.7 mph54%30.08 "Hg25 mi
7:00 PM47 °FOvercast.10 mph54%30.08 "Hg28 mi
6:00 PM46 °FPartly sunny.13 mph60%30.08 "Hg22 mi
4:00 PM47 °FPartly sunny.15 mph55%30.07 "Hg19 mi
3:00 PM38 °FSprinkles. Low clouds.15 mph85%30.09 "Hg5 mi
2:00 PM45 °FPartly sunny.12 mph69%30.06 "Hg19 mi
1:00 PM42 °FPartly sunny.7 mph79%30.07 "Hg22 mi
12:00 PM44 °FPartly sunny.9 mph73%30.06 "Hg19 mi
11:00 AM42 °FOvercast.9 mph76%30.05 "Hg16 mi
10:00 AM41 °FPartly sunny.9 mph76%30.03 "Hg16 mi
9:00 AM39 °FPartly sunny.8 mph81%30.01 "Hg14 mi
Weather by CustomWeather, © 2015

See weather overviewHow to use our weather pages